Location: Zagreb
(45.8000°N, 16.0000°E)
Time: 18:56:11
(UTC+02:00)

Tiros 1 despin weight - Pass Details

Date: 17 August 2022
Orbit: 591 x 638 km, 48.2° (Epoch: 06 October)

Event Time Altitude Azimuth Distance (km) Brightness Sun altitude
Rises 11:11:22 0° 232° (SW) 2,877 ? 50.3°
Reaches altitude 10° 11:13:43 10° 227° (SW) 1,966 ? 50.6°
Maximum altitude 11:18:06 52° 152° (SSE) 755 ? 51.1°
Drops below altitude 10° 11:22:26 10° 76° (ENE) 1,943 ? 51.6°
Sets 11:24:45 0° 71° (ENE) 2,841 ? 51.8°
